Flag for Italy Weather past 2 weeks in Trieste, Italy

Now
56 °F

Partly sunny.


Feels Like: 56 °F
Forecast: 41 / 54 °F
Wind: 2 mph from Southwest

Location: Trieste

Current Time: Mar 3, 2015 at 5:03:38 PM

Latest Report: Mar 3, 2015 at 4:00 PM


Visibility: 13 mi

Pressure: 30.18 "Hg

Humidity: 47%

Dew point: 36 °F

Location of TriesteLocation

Historic Weather in Trieste — Graph

°F

Trieste temperature yesterday

Maximum temperature yesterday: 52 °F (at 4:00 PM)
Minimum temperature yesterday: 47 °F (at 9:00 AM)
Average temperature yesterday: 50 °F

Past Weeks' High & Low Weather Summary

 TemperatureHumidityPressure
High59 °F (Feb 16, 3:00 PM)99% (Feb 24, 3:00 AM)30.60 "Hg (Feb 24, 3:00 AM)
Low35 °F (Feb 19, 7:00 AM)27% (Mar 3, 12:00 PM)29.53 "Hg (Feb 22, 2:00 PM)
Average48 °F62%30.00 "Hg
* Reported Feb 16 3:00 PM — Mar 3 3:00 PM, Trieste, Weather by CustomWeather, © 2015

Note: Actual official high and low records may vary slightly from our data, if they occured in-between our weather recording intervals... More about our weather records

Advertising

Trieste weather history for previous 24 hours

 ConditionsComfort  
Time TempWeatherWind HumidityBarometerVisibility
3:00 PM
Tue, Mar 3
55 °FPartly sunny.1 mph53%30.17 "Hg12 mi
2:00 PM56 °FScattered clouds.1 mph53%30.17 "Hg12 mi
1:00 PM58 °FPassing clouds.5 mph46%30.17 "Hg12 mi
12:00 PM59 °FPassing clouds.2 mph27%30.16 "Hg12 mi
11:00 AM58 °FSunny.7 mph31%30.16 "Hg12 mi
10:00 AM54 °FSunny.13 mph35%30.15 "Hg12 mi
9:00 AM52 °FSunny.13 mph40%30.13 "Hg12 mi
8:00 AM48 °FSunny.15 mph59%30.10 "Hg12 mi
7:00 AM47 °FSunny.17 mph64%30.08 "Hg12 mi
6:00 AM48 °FClear.18 mph66%30.06 "Hg12 mi
5:00 AM41 °FFog.1 mph95%30.04 "Hg2 mi
4:00 AM43 °FFog.No wind95%30.02 "Hg1 mi
3:00 AM45 °FFog.No wind95%29.98 "Hg1 mi
2:00 AM45 °FFog.No wind96%29.98 "Hg0 mi
1:00 AM46 °FFog.No wind96%29.94 "Hg0 mi
12:00 AM46 °FDense fog.No wind96%29.93 "Hg0 mi
11:00 PM
Mon, Mar 2
47 °FFog.No wind96%29.90 "Hg1 mi
9:00 PM50 °FLow clouds.No wind96%29.86 "Hg6 mi
7:00 PM51 °FPassing clouds.1 mph93%29.79 "Hg6 mi
6:00 PM52 °FLow clouds.1 mph90%29.78 "Hg6 mi
5:00 PM52 °FLow clouds.2 mph91%29.75 "Hg6 mi
Weather by CustomWeather, © 2015

See weather overviewHow to use our weather pages